[[{"header":{"parameterUnit":"m.s-1","parameterCategory":1,"la1":30.2991,"la2":30.254,"lo1":-89.0895,"lo2":-89.0444,"dy":0.0017,"dx":0.0017,"nx":28,"ny":28,"refTime":"2024-06-05T03:00:00:Z","depth":0,"parameterNumber":2,"parameterNumberName":"U-component_of_WINDS"},"data":[0,0,0,0,0,0,0,0,0,0,0,0,0,0,0,0,0,0,0,0,0,0,0,0,0,0,0,0,0,0,0,0,0,0,0,0,0,0,0,0,0,0,0,0,0,0,0,0,0,0,0,0,0,0,0,0,0,0,0.4718,0.4719,0,0.4745,0.4746,0.4746,0.476,0.476,0.476,0.476,0.4789,0.479,0.479,0,0,0,0,0,0,0,0,0,0,0,0,0,0.468,0.4681,0.4718,0.4719,0.4719,0.4745,0.4746,0.4746,0.476,0.476,0.476,0.476,0.4789,0.479,0.4791,0,0,0,0,0,0,0,0,0,0,0,0,0,0.4701,0.4681,0.4718,0.4729,0.473,0.4745,0.4746,0.4746,0.476,0.476,0.476,0.476,0.4788,0.4789,0.4791,0.4798,0,0,0.4794,0.4795,0,0,0,0,0,0,0,0,0.47,0.4702,0.4727,0.4728,0.473,0.4749,0.4743,0.4764,0.476,0.4748,0.476,0.476,0.4776,0.4778,0.4783,0.4799,0.48,0.4794,0.4795,0.4796,0.4796,0,0,0,0,0,0,0,0.4698,0.4701,0.4729,0.4727,0.4729,0.4733,0.4736,0.4747,0.4762,0.4749,0.475,0.4753,0.4776,0.4782,0.4784,0.4801,0.4794,0.4795,0.4796,0.4797,0.4825,0.4825,0,0,0,0,0,0,0.4695,0.47,0.4728,0.473,0.4714,0.4734,0.4737,0.4743,0.4762,0.4765,0.4753,0.4754,0.478,0.4782,0.4785,0.4795,0.4796,0.4797,0.4797,0.4825,0.4825,0.4825,0,0,0,0,0,0,0.4694,0.4697,0.4727,0.4715,0.4719,0.4734,0.4741,0.4743,0.4749,0.4765,0.4768,0.4756,0.478,0.4783,0.4795,0.4796,0.4797,0.4798,0.4825,0.4825,0.4825,0.4815,0,0,0,0,0,0,0.4693,0.4697,0.4699,0.4715,0.472,0.4736,0.4741,0.4744,0.4751,0.4752,0.4768,0.4771,0.478,0.4793,0.4796,0.4798,0.4799,0.4825,0.4825,0.4825,0.4815,0.4815,0.4814,0,0,0,0,0,0.4692,0.4695,0.4699,0.4703,0.4723,0.4736,0.4738,0.4749,0.4751,0.4754,0.4764,0.477,0.4796,0.4794,0.4797,0.48,0.4825,0.4825,0.4825,0.4816,0.4815,0.4814,0,0,0,0,0,0,0.468,0.4698,0.4702,0.4711,0.4722,0.4738,0.4742,0.4748,0.4758,0.4759,0.4772,0.4776,0.4786,0.4794,0.4792,0.4808,0.4811,0.4812,0.4802,0.4802,0.4801,0.4799,0.48,0,0,0,0,0,0.4678,0.4686,0.4702,0.4708,0.4713,0.4727,0.4733,0.474,0.4751,0.4756,0.4767,0.4779,0.4789,0.4796,0.4807,0.4817,0.4821,0.482,0.482,0.4819,0.482,0.4826,0.4826,0.4826,0.4826,0.4826,0,0,0.4675,0.4686,0.469,0.4706,0.4715,0.4724,0.473,0.4739,0.4746,0.4758,0.4769,0.4777,0.4791,0.4802,0.4807,0.4809,0.4821,0.4819,0.4819,0.482,0.4827,0.4827,0.4827,0.4826,0.4826,0.4826,0,0,0.4674,0.4682,0.4689,0.4698,0.4712,0.472,0.4722,0.4738,0.4744,0.4755,0.4764,0.4773,0.4791,0.48,0.4808,0.4811,0.4818,0.4814,0.4812,0.4818,0.4818,0.4818,0.482,0.482,0.4815,0.4815,0.4815,0,0.4668,0.4681,0.4692,0.47,0.4708,0.4718,0.4725,0.4734,0.475,0.4755,0.4757,0.478,0.479,0.4804,0.4805,0.481,0.4813,0.4812,0.4817,0.4817,0.4817,0.4819,0.482,0.4814,0.4814,0.4814,0.4814,0,0.4674,0.4683,0.4687,0.4702,0.471,0.4718,0.473,0.4737,0.4744,0.4753,0.4765,0.4777,0.4791,0.4795,0.4802,0.4809,0.481,0.4814,0.4817,0.4817,0.4819,0.4819,0.4814,0.4814,0.4814,0.4814,0,0,0.4665,0.4687,0.4688,0.4696,0.4712,0.4719,0.4728,0.4741,0.4747,0.4758,0.4766,0.4781,0.4785,0.4794,0.4802,0.4807,0.481,0.4811,0.4811,0.481,0.482,0.4817,0.4817,0.4814,0.4814,0.4814,0.4819,0,0.4667,0.4682,0.4692,0.4704,0.4713,0.4724,0.4732,0.4743,0.4752,0.4761,0.4771,0.4782,0.4786,0.4791,0.4797,0.4808,0.4812,0.4808,0.4822,0.4823,0.4819,0.4818,0.4815,0.4818,0.482,0.482,0.482,0,0.467,0.468,0.4693,0.4709,0.4713,0.472,0.4733,0.4741,0.4755,0.4761,0.477,0.4779,0.4789,0.4791,0.4807,0.4804,0.481,0.4817,0.4817,0.4819,0.4821,0.482,0.482,0.482,0.4821,0.4821,0.4821,0,0.4663,0.468,0.469,0.4696,0.4715,0.4719,0.4727,0.4741,0.4748,0.476,0.4765,0.4778,0.4785,0.4795,0.4807,0.4808,0.4821,0.4824,0.4827,0.4827,0.483,0.4829,0.483,0.4834,0.4834,0.4834,0.4834,0,0.4663,0.467,0.4687,0.4693,0.4702,0.4715,0.4723,0.4732,0.4744,0.4753,0.4763,0.4771,0.4786,0.4796,0.4806,0.4817,0.4821,0.4826,0.4829,0.4826,0.4825,0.483,0.483,0.4834,0.4834,0.4834,0.4834,0,0.4656,0.4668,0.468,0.4696,0.4701,0.4707,0.4721,0.4728,0.4738,0.4749,0.4752,0.4767,0.478,0.4793,0.481,0.4816,0.4827,0.4831,0.4823,0.4824,0.4826,0.4826,0.4831,0.4832,0.4834,0.4834,0.4834,0,0.4656,0.4662,0.4679,0.4685,0.4693,0.4703,0.4711,0.4723,0.4731,0.4747,0.4752,0.4765,0.4776,0.4796,0.4809,0.4823,0.4826,0.4827,0.4829,0.4825,0.4827,0.4826,0.4827,0.4827,0.4827,0.4827,0.4826,0,0.4653,0.4659,0.4669,0.4682,0.4691,0.4701,0.4712,0.4717,0.4732,0.474,0.4753,0.4762,0.4779,0.4793,0.4808,0.4817,0.4824,0.4826,0.4827,0.4824,0.4819,0.4822,0.4822,0.4826,0.4826,0.4826,0.4826,0.4826,0.465,0.4656,0.4669,0.4681,0.469,0.4701,0.4708,0.4719,0.4729,0.4744,0.4751,0.4764,0.4778,0.4799,0.4808,0.4819,0.4821,0.4823,0.4824,0.4824,0.4823,0.4818,0.4822,0.4822,0.4822,0.4822,0.4822,0,0.4649,0.4658,0.4668,0.4683,0.4692,0.4698,0.4711,0.4719,0.473,0.4742,0.4753,0.4768,0.4781,0.4795,0.481,0.4816,0.482,0.4819,0.4819,0.4821,0.482,0.4818,0.4816,0.4816,0.4816,0.4816,0.4816,0.4816,0.4649,0.4659,0.4667,0.4683,0.4692,0.4705,0.4711,0.4721,0.4731,0.4747,0.4758,0.4767,0.4781,0.4796,0.4809,0.4813,0.4817,0.4816,0.4821,0.482,0.4821,0.4821,0.4819,0.4817,0.4817,0.482,0.4821,0.4821]},{"header":{"parameterUnit":"m.s-1","parameterCategory":1,"la1":30.2991,"la2":30.254,"lo1":-89.0895,"lo2":-89.0444,"dy":0.0017,"dx":0.0017,"nx":28,"ny":28,"refTime":"2024-06-05T03:00:00:Z","depth":0,"parameterNumber":3,"parameterNumberName":"V-component_of_WINDS"},"data":[0,0,0,0,0,0,0,0,0,0,0,0,0,0,0,0,0,0,0,0,0,0,0,0,0,0,0,0,0,0,0,0,0,0,0,0,0,0,0,0,0,0,0,0,0,0,0,0,0,0,0,0,0,0,0,0,0,0,4.3217,4.3219,0,4.3391,4.3393,4.3395,4.344,4.3439,4.3438,4.3437,4.3604,4.3609,4.3615,0,0,0,0,0,0,0,0,0,0,0,0,0,4.2912,4.2917,4.3217,4.3219,4.3221,4.3391,4.3393,4.3396,4.344,4.3439,4.3437,4.3436,4.3602,4.3609,4.3615,0,0,0,0,0,0,0,0,0,0,0,0,0,4.3061,4.2919,4.3216,4.3264,4.327,4.3391,4.3393,4.3396,4.344,4.3439,4.3437,4.3436,4.36,4.3608,4.3616,4.3698,0,0,4.3641,4.3645,0,0,0,0,0,0,0,0,4.3052,4.3072,4.3255,4.3261,4.3268,4.3393,4.3347,4.3497,4.3441,4.3375,4.3437,4.3435,4.3534,4.3548,4.3584,4.3706,4.3713,4.3642,4.3647,4.365,4.3653,0,0,0,0,0,0,0,4.3042,4.3064,4.3285,4.3257,4.3265,4.3273,4.3293,4.3376,4.3461,4.3381,4.3385,4.3405,4.3537,4.3576,4.3588,4.3716,4.3642,4.3649,4.3654,4.3657,4.3914,4.3916,0,0,0,0,0,0,4.3025,4.3056,4.328,4.3291,4.3154,4.328,4.3302,4.3354,4.346,4.3475,4.3406,4.3407,4.3562,4.3578,4.3594,4.3698,4.365,4.3658,4.3663,4.3912,4.3915,4.3917,0,0,0,0,0,0,4.3018,4.3044,4.3273,4.3174,4.3204,4.3287,4.3345,4.3358,4.3397,4.348,4.3494,4.3431,4.3562,4.3582,4.3673,4.3704,4.3662,4.3669,4.391,4.3913,4.3916,4.3905,0,0,0,0,0,0,4.3009,4.3042,4.3076,4.3175,4.3209,4.3352,4.3347,4.3363,4.3412,4.3414,4.3506,4.352,4.3562,4.366,4.3681,4.3714,4.3675,4.3908,4.3912,4.3915,4.3903,4.3907,4.3911,0,0,0,0,0,4.2998,4.3064,4.3078,4.3104,4.3255,4.3354,4.3373,4.3424,4.3414,4.3448,4.3502,4.3517,4.3697,4.3669,4.3693,4.3729,4.3906,4.391,4.3915,4.3901,4.3906,4.3911,0,0,0,0,0,0,4.2962,4.3077,4.3094,4.3194,4.3265,4.3361,4.3405,4.3427,4.3498,4.3497,4.3553,4.3573,4.366,4.3703,4.367,4.3814,4.3801,4.381,4.3783,4.3789,4.3792,4.378,4.3682,0,0,0,0,0,4.2966,4.3041,4.3136,4.3215,4.325,4.3322,4.3366,4.34,4.3473,4.3502,4.3562,4.3629,4.3701,4.3747,4.3818,4.391,4.3929,4.3946,4.395,4.3953,4.396,4.4011,4.4019,4.3931,4.3931,4.3931,0,0,4.2974,4.3047,4.309,4.321,4.3268,4.3341,4.3346,4.3422,4.3476,4.3512,4.3603,4.3649,4.3728,4.3819,4.3862,4.3858,4.3989,4.3958,4.396,4.3966,4.4016,4.4025,4.4032,4.3934,4.3934,4.3933,0,0,4.3027,4.309,4.3164,4.3223,4.3312,4.336,4.3377,4.3472,4.3505,4.3598,4.3627,4.3689,4.3812,4.3868,4.3911,4.3987,4.4003,4.4008,4.4028,4.4077,4.4084,4.4091,4.4117,4.4126,4.4014,4.4014,4.4014,0,4.3025,4.314,4.3197,4.3274,4.3325,4.3365,4.3438,4.3491,4.3597,4.363,4.3625,4.3781,4.3837,4.3942,4.3961,4.3995,4.4015,4.3997,4.4079,4.4086,4.4093,4.4119,4.4129,4.4014,4.4014,4.4014,4.4014,0,4.3133,4.3212,4.326,4.3367,4.3423,4.3497,4.3562,4.3612,4.364,4.3687,4.378,4.3849,4.3935,4.3962,4.3988,4.4071,4.4066,4.4069,4.4057,4.4101,4.4126,4.4136,4.4014,4.4014,4.4014,4.4014,0,0,4.3167,4.3307,4.3323,4.3372,4.3475,4.3535,4.361,4.3698,4.3739,4.381,4.3873,4.3977,4.3982,4.4032,4.4065,4.4108,4.4164,4.4107,4.4109,4.4115,4.4258,4.4255,4.4265,4.4175,4.4178,4.4179,4.4251,0,4.3232,4.3373,4.3427,4.3539,4.3612,4.3652,4.3717,4.3785,4.3831,4.3897,4.3946,4.4019,4.4019,4.405,4.4095,4.4147,4.4193,4.4143,4.4232,4.4234,4.4211,4.4279,4.4276,4.434,4.4261,4.4263,4.4264,0,4.3328,4.3406,4.3527,4.3622,4.3654,4.3712,4.3798,4.3861,4.3938,4.3968,4.4025,4.4056,4.4133,4.4117,4.4223,4.4187,4.4227,4.4258,4.4262,4.4271,4.4252,4.429,4.4362,4.4372,4.428,4.4279,4.4278,0,4.334,4.3475,4.3565,4.3606,4.3719,4.3758,4.3806,4.3883,4.3932,4.4005,4.4038,4.4117,4.416,4.4219,4.427,4.4253,4.4371,4.4358,4.4396,4.4394,4.4418,4.4416,4.4497,4.4444,4.4444,4.4443,4.4443,0,4.3408,4.348,4.3573,4.3628,4.371,4.377,4.3848,4.3898,4.3966,4.4029,4.4066,4.4124,4.4188,4.4253,4.4292,4.4374,4.4392,4.4417,4.4427,4.4414,4.4411,4.444,4.4437,4.4446,4.4445,4.4445,4.4444,0,4.3435,4.35,4.3602,4.3702,4.3728,4.3784,4.3868,4.3921,4.397,4.405,4.4072,4.4146,4.4225,4.4282,4.4382,4.4409,4.4496,4.4505,4.4471,4.4476,4.451,4.4506,4.4613,4.463,4.4565,4.4565,4.4566,0,4.3474,4.3531,4.3639,4.3686,4.3736,4.3811,4.3863,4.3923,4.3975,4.4069,4.411,4.4193,4.4262,4.4386,4.4447,4.4524,4.4535,4.4567,4.4546,4.4532,4.4535,4.4531,4.4537,4.457,4.457,4.457,4.4571,0,4.3535,4.3566,4.3642,4.3729,4.3792,4.3862,4.3933,4.3968,4.4041,4.4097,4.4181,4.4235,4.434,4.442,4.4504,4.4549,4.4571,4.4577,4.459,4.4577,4.4555,4.4568,4.4479,4.4574,4.4574,4.4574,4.4573,4.4573,4.357,4.3623,4.3708,4.3791,4.3852,4.3918,4.3974,4.4031,4.4103,4.4196,4.4226,4.4313,4.4387,4.4503,4.4549,4.4616,4.4614,4.4632,4.4637,4.464,4.464,4.4546,4.4631,4.4631,4.4631,4.4631,4.463,0,4.3633,4.3691,4.3767,4.3867,4.3932,4.3952,4.4032,4.4084,4.4161,4.4231,4.43,4.4395,4.4474,4.4542,4.4623,4.4663,4.4675,4.4682,4.4679,4.4689,4.4637,4.4618,4.4671,4.4671,4.4671,4.4671,4.4671,4.4671,4.3674,4.3766,4.3806,4.3927,4.3983,4.4071,4.4115,4.4175,4.4232,4.4339,4.4406,4.4452,4.452,4.4607,4.4679,4.4697,4.4724,4.4729,4.4749,4.4698,4.4693,4.4688,4.4671,4.4735,4.4735,4.4796,4.4797,4.4797]}]]